Prescott, AZ

2:48 AM MST on July 23, 2017 (GMT -0700)
Love

Weather History for KPRC - July, 2014

Change the Weather History Date:

Tuesday, July 29, 2014

  Actual Average Record
Temperature  
Mean Temperature 76 °F 75 °F  
Max Temperature 90 °F 88 °F 102 °F (2016)
Min Temperature 61 °F 62 °F 55 °F (1973)
Degree Days  
Heating Degree Days 0    
Month to date heating degree days 0  
Since 1 July heating degree days 0  
Cooling Degree Days 11    
Month to date cooling degree days 348  
Year to date cooling degree days 654  
Growing Degree Days 25 (Base 50)    
Moisture  
Dew Point 53 °F    
Average Humidity 49    
Maximum Humidity 84    
Minimum Humidity 24    
Precipitation  
Precipitation 0.00 in 0.10 in 0.48 in (1966)
Month to date precipitation 1.78 1.93  
Year to date precipitation 2.75 6.86  
Sea Level Pressure  
Sea Level Pressure 29.98 in    
Wind  
Wind Speed 6 mph (SW)    
Max Wind Speed 18 mph    
Max Gust Speed 23 mph    
Visibility 10 miles    
Events      
T = Trace of Precipitation, MM = Missing Value Source: NWS Daily Summary

Daily Weather History Graph

Daily Weather History Graph

Search for Another Location

Airport or City:

Trip Planner

Search our weather history database for the weather conditions in past years. The results will help you decide how hot, cold, wet, or windy it might be!

Date:

Astronomy

Jul. 29, 2014 Rise Set
Actual Time 5:37 AM MST 7:34 PM MST
Civil Twilight 5:09 AM MST 8:01 PM MST
Nautical Twilight 4:35 AM MST 8:35 PM MST
Astronomical Twilight 3:59 AM MST 9:11 PM MST
Moon 8:08 AM MST (7/29) 8:58 PM MST (7/29)
Length of Visible Light 14h 52m
Length of Day
13h 56m
Waxing Crescent, 7% of the Moon is Illuminated
Jul 29
Waxing Crescent
Aug 3
First Quarter
Aug 10
Full
Aug 17
Last Quarter
Aug 25
New

Hourly Weather History & Observations

Time (MST) Temp. Heat Index Dew Point Humidity Pressure Visibility Wind Dir Wind Speed Gust Speed Precip Events Conditions
12:53 AM 64.9 °F - 55.9 °F 73% 30.03 in 10.0 mi Calm Calm - N/A   Clear
1:53 AM 63.0 °F - 55.9 °F 78% 30.04 in 10.0 mi WSW 3.5 mph - N/A   Clear
2:53 AM 62.1 °F - 57.0 °F 84% 30.01 in 10.0 mi Calm Calm - N/A   Clear
3:53 AM 63.0 °F - 55.9 °F 78% 30.03 in 10.0 mi WSW 3.5 mph - N/A   Clear
4:53 AM 61.0 °F - 55.9 °F 83% 30.04 in 10.0 mi South 3.5 mph - N/A   Clear
5:53 AM 61.0 °F - 55.0 °F 81% 30.05 in 10.0 mi SSW 5.8 mph - N/A   Clear
7:53 AM 70.0 °F - 59.0 °F 68% 30.06 in 10.0 mi Calm Calm - N/A   Clear
8:53 AM 75.0 °F - 59.0 °F 57% 30.05 in 10.0 mi North 3.5 mph - N/A   Partly Cloudy
9:53 AM 80.1 °F 80.4 °F 57.0 °F 45% 30.03 in 10.0 mi Variable 4.6 mph - N/A   Scattered Clouds
10:53 AM 82.9 °F 81.9 °F 54.0 °F 37% 30.02 in 10.0 mi North - - N/A   Scattered Clouds
11:53 AM 84.9 °F 83.2 °F 53.1 °F 33% 30.00 in 10.0 mi Calm Calm - N/A   Mostly Cloudy
12:53 PM 88.0 °F - 51.1 °F 28% 29.97 in 10.0 mi Variable 4.6 mph - N/A   Mostly Cloudy
1:53 PM 89.1 °F - 50.0 °F 26% 29.95 in 10.0 mi West 8.1 mph - N/A   Mostly Cloudy
3:53 PM 89.1 °F - 48.9 °F 25% 29.92 in 10.0 mi WSW 17.3 mph 23.0 mph N/A   Scattered Clouds
4:53 PM 88.0 °F - 48.9 °F 26% 29.91 in 10.0 mi WSW 11.5 mph - N/A   Scattered Clouds
5:53 PM 86.0 °F - 48.9 °F 28% 29.91 in 10.0 mi WSW 11.5 mph - N/A   Scattered Clouds
6:53 PM 84.9 °F - 48.9 °F 29% 29.89 in 10.0 mi WSW 9.2 mph - N/A   Clear
7:53 PM 81.0 °F - 48.9 °F 33% 29.90 in 10.0 mi WSW 6.9 mph - N/A   Clear
8:53 PM 78.1 °F - 50.0 °F 37% 29.92 in 10.0 mi SW 5.8 mph - N/A   Clear
9:53 PM 75.0 °F - 50.0 °F 41% 29.93 in 10.0 mi SW 6.9 mph - N/A   Clear
11:53 PM 71.1 °F - 51.1 °F 49% 29.93 in 10.0 mi South 8.1 mph - N/A   Clear